Regional Weather Roundup
Issued by NWS Newport/Morehead, NC

Current Version | Previous Version | Text Only | Print | Product List | Glossary Off
Versions: 1 2 3 4 5 6 7 8 9 10 11 12 13 14 15 16 17 18 19 20 21 22 23 24 25 26 27 28 29 30 31 32 33 34 35 36 37 38 39 40 41 42 43 44 45 46 47 48 49 50

000
ASUS42 KMHX 262325
RWRMHX
WEATHER ROUNDUP FOR EASTERN NORTH CAROLINA
NATIONAL WEATHER SERVICE NEWPORT/MOREHEAD CITY NC
700 PM EDT FRI AUG 26 2016

NOTE: "FAIR" INDICATES FEW OR NO CLOUDS BELOW 12,000 FEET
WITH NO SIGNIFICANT WEATHER AND/OR OBSTRUCTIONS TO VISIBILITY

NCZ015>017-031-032-045>047-102-103-270000-
NORTH COAST

CITY           SKY/WX    TMP DP  RH WIND       PRES   REMARKS
EDENTON        CLEAR     91  72  54 S7        30.03F
ELIZABETH CITY CLEAR     88  72  58 S6        30.03F
KITTY HAWK     CLEAR     87  77  73 S3        30.03S
MANTEO         CLEAR     83  75  77 S9        30.04F

$$

NCZ045>047-081-094-103-104-270000-
CENTRAL COAST

CITY           SKY/WX    TMP DP  RH WIND       PRES   REMARKS
FRISCO         CLEAR     84  69  60 S5        30.05F

$$

NCZ095-097-098-100-101-270000-
SOUTHERN COAST

CITY           SKY/WX    TMP DP  RH WIND       PRES   REMARKS
BEAUFORT       CLEAR     83  71  67 SE5       30.05S
CEDAR ISLAND   NOT AVBL
JACKSONVILLE   CLEAR     84  71  65 S8        30.04S
PINEY ISLAND   NOT AVBL
WILMINGTON     CLEAR     84  71  65 SE5       30.05S


$$

NCZ011>013-027>030-043-044-078>080-089-090>093-098-270000-
COASTAL PLAIN

CITY           SKY/WX    TMP DP  RH WIND       PRES   REMARKS
AHOSKIE        CLEAR     88  75  64 SE3       30.03S
CLINTON        CLEAR     91  75  61 CALM      30.03S HX 101
ELIZABETHTOWN  CLEAR     90  73  58 S6        30.04R
GOLDSBORO      CLEAR     92  74  54 SE6       30.01S HX 101
GREENVILLE     CLEAR     91  73  55 SE6       30.04F HX 100
HAVELOCK       CLEAR     85  72  65 SE6       30.06R
KENANSVILLE    CLEAR     86  77  74 CALM      30.04S
KINSTON        CLEAR     90  73  58 S5        30.04S
NEW BERN       CLEAR     86  75  69 SE6       30.05S
RICHLANDS      CLEAR     86  76  71 SE5       30.05R
ROCKY MOUNT    CLEAR     92  76  59 CALM      30.02F HX 104
WASHINGTON     CLEAR     88  74  64 SE6       30.03S
WHITEVILLE     CLEAR     87  73  62 S5        30.04R

$$

AMZ130-135-150-152-154-156-158-170-250-252-270-ANZ085-086-088-633-658-670-270000-
MARINE OBSERVATIONS

STATION/POSITION TIME  TEMP    WIND        PRES    WAVE   SWELL
                       AIR SEA DIR/SP/G            HT/PER HT/PER
                 (UTC) (F)     (DEG/KT/KT) (MB)    (FT/S) (FT/S)
CHESAPEAKE LIGHT NOT AVBL
64 E VA BEACH    2250   81 81  210/ 10/ 12 1016.9    2/ 8   2/ 8
DUCK             2200   84 79              1016.8
2 E DUCK         2211      80                N/A     2/ 7
OREGON INLET     2200   82 82              1017.5
13E OREGON INLT  2300      79                N/A     2/ 8   2/ 8
HATTERAS CG      2200   85 82              1017.7
DIAMOND BUOY     2250   83 87  150/  2/  4 1017.9    2/ 8   2/ 8
CAPE LOOKOUT     2300   82     110/  4/  5 1017.4
BEAUFORT LAB     2200   85 82              1017.1
30 SE NEW RVR IN 2308   82 85  120/  6/ 10 1017.6
30 SE NEW RVR IN 2225      85                N/A     2/ 8
27 SE WRIGHTSVLE 2308   83 84  110/  6/ 10 1017.6
5 SE WRIGHTSVLE  2208   83 85  140/  6/ 10 1018.3
225 S CAPE HAT   2250   82 84   70/ 16/ 17 1016.1    5/11   3/11
41 SE CHARLESTON 2250   83 83   70/ 12/ 16 1016.3    3/ 4   2/ 7

$$




USA.gov is the U.S. government's official web portal to all federal, state and local government web resources and services.